FW8568 Weather Reports


time (UTC)temp
C
wind
direction
speed
KPH
gust
KPH
rain 1hr
cm
rain 24hr
cm
rain mn
cm
humidity
%
barometer
mb
20260507143308 24 84 0.0 1.6 0.00 0.00 0.00 29 1013.6
20260507142803 25 44 0.0 0.0 0.00 0.00 0.00 30 1013.6
20260507142300 25 270 0.0 0.0 0.00 0.00 0.00 29 1013.6
20260507141756 25 257 0.0 0.0 0.00 0.00 0.00 29 1013.5
20260507141254 25 305 0.0 0.0 0.00 0.00 0.00 29 1013.5
20260507140749 24 299 0.0 0.0 0.00 0.00 0.00 32 1013.5
20260507140247 25 261 0.0 0.0 0.00 0.00 0.00 30 1013.3
20260507135744 25 268 0.0 1.6 0.00 0.00 0.00 29 1013.4
20260507135242 23 284 0.0 0.0 0.00 0.00 0.00 33 1013.5
20260507134737 22 257 0.0 1.6 0.00 0.00 0.00 34 1013.4
20260507134234 20 284 0.0 3.2 0.00 0.00 0.00 38 1013.4
20260507133730 17 319 1.6 3.2 0.00 0.00 0.00 42 1013.3
20260507133227 17 279 1.6 4.8 0.00 0.00 0.00 42 1013.5
20260507132724 16 305 0.0 3.2 0.00 0.00 0.00 41 1013.3
20260507132221 16 350 0.0 1.6 0.00 0.00 0.00 41 1013.4
20260507131718 16 321 3.2 3.2 0.00 0.00 0.00 41 1013.3
20260507131215 16 314 1.6 3.2 0.00 0.00 0.00 41 1013.2
20260507130712 16 310 0.0 3.2 0.00 0.00 0.00 42 1013.3
20260507130210 16 296 3.2 4.8 0.00 0.00 0.00 40 1013.2
20260507125708 16 308 1.6 3.2 0.00 0.00 0.00 41 1013.0
20260507125205 16 284 0.0 1.6 0.00 0.00 0.00 41 1013.0
20260507124701 16 264 0.0 3.2 0.00 0.00 0.00 40 1012.8
20260507124159 15 303 3.2 3.2 0.00 0.00 0.00 41 1013.3
20260507123657 16 278 3.2 3.2 0.00 0.00 0.00 40 1013.1
20260507123154 16 281 1.6 3.2 0.00 0.00 0.00 41 1013.1
20260507122649 16 289 1.6 3.2 0.00 0.00 0.00 40 1012.9
20260507122145 16 272 3.2 3.2 0.00 0.00 0.00 39 1013.1
20260507121641 16 283 1.6 3.2 0.00 0.00 0.00 40 1013.0
20260507121137 16 287 1.6 3.2 0.00 0.00 0.00 39 1013.0
20260507120634 16 322 0.0 3.2 0.00 0.00 0.00 39 1012.8
20260507120131 16 243 1.6 3.2 0.00 0.00 0.00 39 1013.0
20260507115627 16 288 0.0 4.8 0.00 0.00 0.00 38 1012.9
20260507115122 16 290 1.6 3.2 0.00 0.00 0.00 38 1012.7
20260507114619 16 329 0.0 3.2 0.00 0.00 0.00 38 1013.0
20260507114116 16 324 0.0 3.2 0.00 0.00 0.00 38 1013.0
20260507113613 16 287 3.2 3.2 0.00 0.00 0.00 37 1013.0
20260507113110 17 264 0.0 1.6 0.00 0.00 0.00 37 1013.2
20260507112608 17 270 0.0 1.6 0.00 0.00 0.00 37 1013.1
20260507112105 17 284 0.0 0.0 0.00 0.00 0.00 36 1012.9
20260507111602 17 317 0.0 3.2 0.00 0.00 0.00 38 1012.8
20260507111058 17 276 0.0 0.0 0.00 0.00 0.00 39 1013.1
20260507110554 16 284 0.0 1.6 0.00 0.00 0.00 40 1012.9
20260507110051 17 289 1.6 3.2 0.00 0.00 0.00 39 1012.9
20260507105548 17 295 0.0 1.6 0.00 0.00 0.00 39 1013.1
20260507105044 17 284 0.0 1.6 0.00 0.00 0.00 38 1013.0
20260507104542 17 295 0.0 1.6 0.00 0.00 0.00 39 1013.3
20260507104038 17 314 1.6 1.6 0.00 0.00 0.00 38 1012.9
20260507103534 17 290 0.0 1.6 0.00 0.00 0.00 38 1013.1
20260507103031 17 315 0.0 1.6 0.00 0.00 0.00 38 1013.4
20260507102528 17 287 1.6 3.2 0.00 0.00 0.00 37 1013.4
20260507102024 17 288 1.6 1.6 0.00 0.00 0.00 37 1013.3
20260507101519 17 268 0.0 1.6 0.00 0.00 0.00 37 1013.5
20260507101016 18 284 0.0 1.6 0.00 0.00 0.00 37 1013.4
20260507100513 17 294 1.6 1.6 0.00 0.00 0.00 36 1013.5
20260507100011 17 272 0.0 1.6 0.00 0.00 0.00 38 1013.6
20260507095509 17 298 0.0 3.2 0.00 0.00 0.00 39 1013.4
20260507095005 17 274 1.6 3.2 0.00 0.00 0.00 39 1013.5
20260507094501 18 296 0.0 1.6 0.00 0.00 0.00 38 1013.5
20260507093959 18 287 1.6 3.2 0.00 0.00 0.00 37 1013.5
20260507093456 18 284 1.6 3.2 0.00 0.00 0.00 36 1013.3
20260507092954 18 284 0.0 3.2 0.00 0.00 0.00 35 1013.2
20260507092450 18 284 1.6 3.2 0.00 0.00 0.00 35 1013.4
20260507091947 18 273 1.6 3.2 0.00 0.00 0.00 34 1013.4
20260507091444 18 284 0.0 1.6 0.00 0.00 0.00 35 1013.5
20260507090940 18 282 1.6 3.2 0.00 0.00 0.00 35 1013.3
20260507090436 18 284 0.0 3.2 0.00 0.00 0.00 35 1013.2
20260507085932 18 284 1.6 1.6 0.00 0.00 0.00 35 1013.2
20260507085430 18 294 1.6 1.6 0.00 0.00 0.00 34 1013.3
20260507084927 18 284 1.6 1.6 0.00 0.00 0.00 35 1013.5
20260507084424 18 289 1.6 1.6 0.00 0.00 0.00 35 1013.5
20260507083921 18 298 0.0 1.6 0.00 0.00 0.00 34 1013.5
20260507083417 18 280 0.0 1.6 0.00 0.00 0.00 34 1013.6
20260507082913 18 261 0.0 1.6 0.00 0.00 0.00 35 1013.8
20260507082409 18 302 0.0 1.6 0.00 0.00 0.00 34 1013.5
20260507081907 18 293 0.0 3.2 0.00 0.00 0.00 34 1013.5
20260507081403 18 288 1.6 1.6 0.00 0.00 0.00 33 1013.6
20260507080859 18 287 0.0 3.2 0.00 0.00 0.00 34 1013.4
20260507080356 18 284 0.0 1.6 0.00 0.00 0.00 34 1013.7
20260507075851 19 314 1.6 3.2 0.00 0.00 0.00 33 1013.7
20260507075347 19 308 0.0 1.6 0.00 0.00 0.00 34 1013.6
20260507074844 19 312 1.6 1.6 0.00 0.00 0.00 33 1013.7
20260507074341 19 272 0.0 1.6 0.00 0.00 0.00 33 1013.8
20260507073838 20 292 0.0 1.6 0.00 0.00 0.00 33 1013.6
20260507073335 20 298 0.0 1.6 0.00 0.00 0.00 32 1013.7
20260507072832 20 324 0.0 1.6 0.00 0.00 0.00 31 1013.7
20260507072330 20 275 0.0 1.6 0.00 0.00 0.00 31 1013.8
20260507071827 20 245 0.0 1.6 0.00 0.00 0.00 31 1013.7
20260507071324 20 287 0.0 1.6 0.00 0.00 0.00 32 1013.7
20260507070820 20 284 0.0 1.6 0.00 0.00 0.00 33 1013.5
20260507070318 20 319 0.0 1.6 0.00 0.00 0.00 33 1013.6
20260507065814 20 300 0.0 1.6 0.00 0.00 0.00 33 1013.6
20260507065311 20 277 0.0 1.6 0.00 0.00 0.00 33 1013.7
20260507064808 20 288 0.0 1.6 0.00 0.00 0.00 32 1013.4
20260507064307 20 274 0.0 1.6 0.00 0.00 0.00 32 1013.7
20260507063804 20 308 0.0 1.6 0.00 0.00 0.00 32 1013.7
20260507063301 20 271 0.0 1.6 0.00 0.00 0.00 32 1013.6
20260507062758 20 284 0.0 1.6 0.00 0.00 0.00 31 1013.7
20260507062255 20 271 0.0 1.6 0.00 0.00 0.00 32 1013.5
20260507061753 21 305 0.0 1.6 0.00 0.00 0.00 31 1013.6
20260507061250 21 306 1.6 1.6 0.00 0.00 0.00 31 1013.7
20260507060748 21 257 0.0 1.6 0.00 0.00 0.00 31 1013.5
20260507060244 21 257 0.0 1.6 0.00 0.00 0.00 36 1013.8
20260507055741 20 308 0.0 1.6 0.00 0.00 0.00 33 1013.7
20260507055236 21 323 1.6 1.6 0.00 0.00 0.00 33 1013.5
20260507054733 21 311 1.6 1.6 0.00 0.00 0.00 33 1013.9
20260507054230 21 284 0.0 1.6 0.00 0.00 0.00 33 1013.5
20260507053727 21 307 0.0 0.0 0.00 0.00 0.00 32 1013.6
20260507053225 21 321 0.0 0.0 0.00 0.00 0.00 33 1013.5
20260507052724 21 284 0.0 1.6 0.00 0.00 0.00 32 1013.5
20260507052219 21 284 0.0 1.6 0.00 0.00 0.00 31 1013.6
20260507051718 21 284 0.0 1.6 0.00 0.00 0.00 31 1013.6
20260507051214 21 284 0.0 0.0 0.00 0.00 0.00 31 1013.5
20260507050711 21 330 0.0 0.0 0.00 0.00 0.00 30 1013.4
20260507050208 22 304 0.0 0.0 0.00 0.00 0.00 31 1013.3
20260507045705 22 319 0.0 0.0 0.00 0.00 0.00 30 1013.3
20260507045201 22 284 0.0 0.0 0.00 0.00 0.00 30 1013.3
20260507044658 22 284 0.0 0.0 0.00 0.00 0.00 30 1013.3
20260507044154 22 257 0.0 0.0 0.00 0.00 0.00 30 1013.3
20260507043651 22 288 0.0 1.6 0.00 0.00 0.00 29 1013.5
20260507043148 22 334 0.0 0.0 0.00 0.00 0.00 29 1013.3
20260507042644 22 297 0.0 0.0 0.00 0.00 0.00 29 1013.3
20260507042139 22 297 0.0 0.0 0.00 0.00 0.00 28 1013.1
20260507041637 23 298 0.0 0.0 0.00 0.00 0.00 29 1013.3
20260507041133 23 298 0.0 0.0 0.00 0.00 0.00 28 1013.0
20260507040630 23 325 0.0 0.0 0.00 0.00 0.00 28 1013.2
20260507040127 23 349 0.0 0.0 0.00 0.00 0.00 29 1012.8
20260507035622 23 104 0.0 0.0 0.00 0.00 0.00 27 1012.9
20260507035118 24 104 0.0 0.0 0.00 0.00 0.00 28 1012.9
20260507034615 24 65 0.0 0.0 0.00 0.00 0.00 27 1012.7
20260507034113 24 122 0.0 1.6 0.00 0.00 0.00 27 1012.7
20260507033611 23 349 0.0 0.0 0.00 0.00 0.00 28 1012.6
20260507033108 24 349 0.0 0.0 0.00 0.00 0.00 27 1012.7
20260507032606 24 349 0.0 0.0 0.00 0.00 0.00 27 1012.6
20260507032102 25 349 0.0 0.0 0.00 0.00 0.00 28 1012.5
20260507031558 25 349 0.0 0.0 0.00 0.00 0.00 26 1012.4
20260507031055 25 47 0.0 0.0 0.00 0.00 0.00 26 1012.2
20260507030552 25 59 0.0 0.0 0.00 0.00 0.00 27 1012.4
20260507030050 25 65 0.0 0.0 0.00 0.00 0.00 26 1012.2
20260507025547 25 157 0.0 0.0 0.00 0.00 0.00 25 1012.0
20260507025044 26 132 0.0 0.0 0.00 0.00 0.00 25 1012.0
20260507024541 26 132 0.0 0.0 0.00 0.00 0.00 24 1012.0
20260507024038 26 115 1.6 3.2 0.00 0.00 0.00 24 1012.0
20260507023533 26 104 0.0 1.6 0.00 0.00 0.00 25 1011.9
20260507023032 27 99 1.6 3.2 0.00 0.00 0.00 23 1012.0
20260507022528 27 104 0.0 3.2 0.00 0.00 0.00 23 1012.0
20260507022023 27 104 0.0 3.2 0.00 0.00 0.00 23 1011.8
20260507021520 27 49 0.0 4.8 0.00 0.00 0.00 23 1011.8
20260507021016 27 111 0.0 3.2 0.00 0.00 0.00 22 1011.8
20260507020514 27 94 4.8 4.8 0.00 0.00 0.00 22 1011.5
20260507020010 28 106 0.0 3.2 0.00 0.00 0.00 22 1011.7
20260507015509 28 15 0.0 4.8 0.00 0.00 0.00 22 1011.6
20260507015006 29 107 0.0 4.8 0.00 0.00 0.00 21 1011.7
20260507014502 29 338 0.0 4.8 0.00 0.00 0.00 21 1011.7
20260507013958 28 20 0.0 4.8 0.00 0.00 0.00 21 1011.8
20260507013455 28 100 6.4 6.4 0.00 0.00 0.00 22 1011.7
20260507012952 28 81 3.2 4.8 0.00 0.00 0.00 21 1011.6
20260507012449 28 108 3.2 4.8 0.00 0.00 0.00 21 1011.7
20260507011946 30 114 3.2 4.8 0.00 0.00 0.00 20 1011.7
20260507011443 30 84 4.8 6.4 0.00 0.00 0.00 21 1011.6
20260507010938 31 97 1.6 8.0 0.00 0.00 0.00 20 1011.6
20260507010433 32 90 3.2 4.8 0.00 0.00 0.00 19 1011.7
20260507005930 31 91 3.2 4.8 0.00 0.00 0.00 20 1011.7
20260507005427 31 81 0.0 3.2 0.00 0.00 0.00 20 1011.7
20260507004923 31 98 4.8 6.4 0.00 0.00 0.00 19 1011.9
20260507004420 31 123 3.2 6.4 0.00 0.00 0.00 20 1011.5
20260507003918 31 64 1.6 4.8 0.00 0.00 0.00 20 1011.6
20260507003413 31 85 1.6 8.0 0.00 0.00 0.00 20 1011.7
20260507002908 31 101 0.0 6.4 0.00 0.00 0.00 20 1011.8
20260507002404 30 104 4.8 8.0 0.00 0.00 0.00 20 1011.9
20260507001902 30 102 1.6 8.0 0.00 0.00 0.00 20 1011.7
20260507001358 32 128 0.0 4.8 0.00 0.00 0.00 19 1011.7
20260507000856 32 113 1.6 4.8 0.00 0.00 0.00 19 1011.8
20260507000350 32 88 3.2 6.4 0.00 0.00 0.00 20 1011.8
20260506235847 31 56 3.2 8.0 0.00 0.00 0.00 20 1011.7
20260506235344 32 110 1.6 4.8 0.00 0.00 0.00 19 1011.7
20260506234840 31 98 0.0 4.8 0.00 0.00 0.00 20 1011.7
20260506234338 32 74 3.2 6.4 0.00 0.00 0.00 19 1011.8
20260506233836 32 67 1.6 4.8 0.00 0.00 0.00 20 1011.8
20260506233331 32 50 0.0 4.8 0.00 0.00 0.00 19 1011.8
20260506232829 31 67 0.0 4.8 0.00 0.00 0.00 19 1012.1
20260506232324 31 98 3.2 9.7 0.00 0.00 0.00 20 1012.0
20260506231821 30 87 3.2 8.0 0.00 0.00 0.00 20 1012.1
20260506231319 30 138 3.2 8.0 0.00 0.00 0.00 20 1012.0
20260506230816 31 181 4.8 8.0 0.00 0.00 0.00 20 1012.3
20260506230312 31 93 4.8 4.8 0.00 0.00 0.00 19 1012.3
20260506225808 30 73 3.2 4.8 0.00 0.00 0.00 19 1012.4
20260506225306 30 118 0.0 4.8 0.00 0.00 0.00 20 1012.1
20260506224803 30 81 3.2 6.4 0.00 0.00 0.00 20 1012.5
20260506224300 30 112 3.2 4.8 0.00 0.00 0.00 21 1012.5
20260506223756 30 157 0.0 8.0 0.00 0.00 0.00 20 1012.4
20260506223251 31 74 1.6 3.2 0.00 0.00 0.00 19 1012.6
20260506222748 30 103 1.6 8.0 0.00 0.00 0.00 20 1012.4
20260506222244 31 108 3.2 3.2 0.00 0.00 0.00 20 1012.7
20260506221737 30 81 0.0 3.2 0.00 0.00 0.00 21 1012.6
20260506221234 30 129 1.6 6.4 0.00 0.00 0.00 20 1012.7
20260506220731 30 121 4.8 8.0 0.00 0.00 0.00 20 1012.9
20260506220226 30 93 4.8 6.4 0.00 0.00 0.00 20 1012.9
20260506215723 30 114 4.8 4.8 0.00 0.00 0.00 20 1012.8
20260506215218 29 2 0.0 4.8 0.00 0.00 0.00 22 1012.9
20260506214715 30 307 1.6 3.2 0.00 0.00 0.00 22 1013.1
20260506214213 29 95 0.0 4.8 0.00 0.00 0.00 21 1013.2
20260506213711 28 90 3.2 8.0 0.00 0.00 0.00 21 1013.4
20260506213208 28 108 3.2 9.7 0.00 0.00 0.00 22 1013.4
20260506212705 29 117 4.8 4.8 0.00 0.00 0.00 21 1013.4
20260506212200 28 89 3.2 12.9 0.00 0.00 0.00 22 1013.4
20260506211656 28 36 1.6 9.7 0.00 0.00 0.00 22 1013.7
20260506211152 28 104 0.0 4.8 0.00 0.00 0.00 21 1013.7
20260506210649 27 107 0.0 6.4 0.00 0.00 0.00 24 1013.8
20260506210146 28 125 0.0 6.4 0.00 0.00 0.00 21 1013.9
20260506205644 28 65 3.2 4.8 0.00 0.00 0.00 21 1014.0
20260506205138 28 113 1.6 8.0 0.00 0.00 0.00 22 1014.0
20260506204636 27 107 1.6 8.0 0.00 0.00 0.00 22 1014.1
20260506204133 28 79 3.2 8.0 0.00 0.00 0.00 22 1014.3
20260506203631 28 99 4.8 6.4 0.00 0.00 0.00 22 1014.2
20260506203127 27 129 0.0 4.8 0.00 0.00 0.00 23 1014.1
20260506202626 27 87 3.2 6.4 0.00 0.00 0.00 22 1014.3
20260506202121 27 99 3.2 12.9 0.00 0.00 0.00 22 1014.3
20260506201619 27 103 4.8 6.4 0.00 0.00 0.00 22 1014.3
20260506201115 27 114 3.2 6.4 0.00 0.00 0.00 22 1014.4
20260506200612 26 230 1.6 3.2 0.00 0.00 0.00 24 1014.6
20260506200109 27 90 3.2 4.8 0.00 0.00 0.00 23 1014.6
20260506195605 27 98 3.2 3.2 0.00 0.00 0.00 24 1014.4
20260506195102 27 171 0.0 3.2 0.00 0.00 0.00 25 1014.7
20260506194559 26 15 0.0 6.4 0.00 0.00 0.00 24 1014.8
20260506194055 26 72 1.6 3.2 0.00 0.00 0.00 26 1014.6
20260506193553 25 278 4.8 6.4 0.00 0.00 0.00 25 1014.8
20260506193050 26 95 4.8 9.7 0.00 0.00 0.00 25 1015.0
20260506192547 26 85 3.2 6.4 0.00 0.00 0.00 25 1014.9
20260506192043 26 67 3.2 8.0 0.00 0.00 0.00 24 1014.9
20260506191539 26 135 1.6 8.0 0.00 0.00 0.00 25 1015.2
20260506191035 26 82 4.8 9.7 0.00 0.00 0.00 26 1015.1
20260506190533 26 125 4.8 8.0 0.00 0.00 0.00 25 1015.1
20260506190030 26 80 3.2 4.8 0.00 0.00 0.00 25 1015.2
20260506185527 26 58 8.0 8.0 0.00 0.00 0.00 26 1015.2
20260506185023 25 88 0.0 6.4 0.00 0.00 0.00 26 1015.3
20260506184521 25 106 3.2 8.0 0.00 0.00 0.00 26 1015.3
20260506184018 25 211 3.2 4.8 0.00 0.00 0.00 26 1015.5
20260506183514 26 144 3.2 4.8 0.00 0.00 0.00 26 1015.6
20260506183011 26 62 1.6 4.8 0.00 0.00 0.00 25 1015.5
20260506182508 25 112 6.4 8.0 0.00 0.00 0.00 25 1015.7
20260506182005 25 11 1.6 4.8 0.00 0.00 0.00 29 1016.0
20260506181503 25 84 3.2 4.8 0.00 0.00 0.00 28 1015.9
20260506181000 24 67 0.0 4.8 0.00 0.00 0.00 27 1016.1
20260506180456 25 100 4.8 4.8 0.00 0.00 0.00 27 1015.8
20260506175953 25 68 1.6 4.8 0.00 0.00 0.00 28 1015.8
20260506175449 25 150 3.2 6.4 0.00 0.00 0.00 28 1016.1
20260506174946 25 65 6.4 6.4 0.00 0.00 0.00 29 1015.9
20260506174444 25 122 4.8 6.4 0.00 0.00 0.00 28 1015.8
20260506173940 25 324 0.0 4.8 0.00 0.00 0.00 29 1015.6
20260506173438 24 260 1.6 3.2 0.00 0.00 0.00 31 1016.0
20260506172934 24 83 0.0 8.0 0.00 0.00 0.00 30 1016.1
20260506172432 25 161 1.6 4.8 0.00 0.00 0.00 29 1015.7
20260506171928 25 91 3.2 4.8 0.00 0.00 0.00 30 1015.9
20260506171426 25 77 1.6 6.4 0.00 0.00 0.00 29 1015.7
20260506170924 25 101 3.2 4.8 0.00 0.00 0.00 29 1016.0
20260506170419 25 118 0.0 3.2 0.00 0.00 0.00 31 1015.7
20260506165913 23 119 0.0 1.6 0.00 0.00 0.00 30 1015.9
20260506165411 23 91 0.0 6.4 0.00 0.00 0.00 30 1016.1
20260506164907 23 78 0.0 4.8 0.00 0.00 0.00 30 1015.9
20260506164403 23 51 0.0 6.4 0.00 0.00 0.00 32 1015.8
20260506163901 24 84 0.0 6.4 0.00 0.00 0.00 31 1015.9
20260506163356 25 274 1.6 4.8 0.00 0.00 0.00 30 1015.8
20260506162851 24 211 0.0 1.6 0.00 0.00 0.00 32 1016.0
20260506162349 24 89 1.6 3.2 0.00 0.00 0.00 31 1015.8
20260506161841 23 226 0.0 1.6 0.00 0.00 0.00 32 1015.8
20260506161338 22 142 1.6 3.2 0.00 0.00 0.00 34 1015.7
20260506160835 22 87 0.0 3.2 0.00 0.00 0.00 34 1015.7
20260506160332 22 271 0.0 6.4 0.00 0.00 0.00 34 1015.9
20260506155830 22 37 1.6 1.6 0.00 0.00 0.00 33 1015.9
20260506155326 22 91 0.0 4.8 0.00 0.00 0.00 34 1015.7
20260506153439 22 104 0.0 4.8 0.00 0.00 0.00 33 1016.0
20260506152937 22 91 0.0 3.2 0.00 0.00 0.00 34 1015.9
20260506152433 22 10 0.0 3.2 0.00 0.00 0.00 33 1015.9
20260506151932 22 337 0.0 0.0 0.00 0.00 0.00 33 1016.0
20260506151428 21 284 0.0 3.2 0.00 0.00 0.00 34 1015.9
20260506150926 21 217 0.0 1.6 0.00 0.00 0.00 38 1016.0
20260506150422 20 156 0.0 1.6 0.00 0.00 0.00 37 1015.8
20260506145919 20 337 0.0 1.6 0.00 0.00 0.00 36 1015.8
20260506145415 20 243 0.0 3.2 0.00 0.00 0.00 37 1015.7
20260506144913 20 195 0.0 3.2 0.00 0.00 0.00 38 1015.8
20260506144409 20 92 0.0 1.6 0.00 0.00 0.00 38 1015.9
20260506143908 20 139 0.0 3.2 0.00 0.00 0.00 38 1016.0